N7MD LEMH-LPPR

Flight info

Callsign N7MD
Flight time 1h 38m
Altitude 45000
Route EPAMA DCT IXUPA DCT ARGOR DCT VLC N733 ZMR L155 ADORO DCT ELGIX
Aircraft C750/M-SBDE3FGHRWXY/S

Departure

Time 2026-04-23 02:52
Airport Menorca Airport (LEMH)

Arrival

Time 2026-04-23 04:31
Airport Francisco de Sá Carneiro Airport (LPPR)
Time Latitude Longitude Altitude Speed Heading
2026-04-23 02:25 39.86062 4.22224 297 ft 0 kts
2026-04-23 02:40 39.86053 4.22222 294 ft 2 kts
2026-04-23 02:40 39.86039 4.22215 289 ft 2 kts 90°
2026-04-23 02:41 39.86040 4.22198 292 ft 0 kts 99°
2026-04-23 02:45 39.86040 4.22199 292 ft 0 kts 99°
2026-04-23 02:45 39.86040 4.22219 288 ft 4 kts 92°
2026-04-23 02:45 39.86038 4.22274 294 ft 7 kts 93°
2026-04-23 02:45 39.86037 4.22324 294 ft 4 kts 62°
2026-04-23 02:46 39.86053 4.22333 295 ft 2 kts 11°
2026-04-23 02:46 39.86068 4.22328 294 ft 4 kts 321°
2026-04-23 02:46 39.86083 4.22280 296 ft 6 kts 325°
2026-04-23 02:46 39.86139 4.22290 297 ft 11 kts
2026-04-23 02:47 39.86177 4.22261 296 ft 7 kts 283°
2026-04-23 02:47 39.86185 4.22192 296 ft 9 kts 279°
2026-04-23 02:47 39.86185 4.22107 295 ft 10 kts 242°
2026-04-23 02:47 39.86111 4.22073 294 ft 15 kts 187°
2026-04-23 02:48 39.85996 4.22050 293 ft 18 kts 189°
2026-04-23 02:48 39.85866 4.22023 292 ft 20 kts 189°
2026-04-23 02:48 39.85726 4.21994 290 ft 21 kts 188°
2026-04-23 02:48 39.85583 4.21965 289 ft 21 kts 189°
2026-04-23 02:49 39.85443 4.21936 288 ft 20 kts 189°
2026-04-23 02:49 39.85303 4.21907 286 ft 20 kts 189°
2026-04-23 02:49 39.85167 4.21879 285 ft 18 kts 189°
2026-04-23 02:49 39.85072 4.21847 284 ft 12 kts 217°
2026-04-23 02:50 39.85075 4.21755 283 ft 6 kts 308°
2026-04-23 02:50 39.85079 4.21751 283 ft 0 kts 309°
2026-04-23 02:50 39.85080 4.21748 283 ft 2 kts 309°
2026-04-23 02:50 39.85101 4.21718 283 ft 8 kts 311°
2026-04-23 02:51 39.85144 4.21659 283 ft 8 kts 320°
2026-04-23 02:51 39.85188 4.21646 284 ft 5 kts
2026-04-23 02:51 39.85191 4.21647 284 ft 0 kts 10°
2026-04-23 02:52 39.85244 4.21658 285 ft 40 kts
2026-04-23 02:52 39.85894 4.21791 311 ft 135 kts 11°
2026-04-23 02:52 39.86816 4.21970 1011 ft 134 kts 11°
2026-04-23 02:52 39.87774 4.22220 1651 ft 146 kts 17°
2026-04-23 02:53 39.88818 4.22587 2224 ft 163 kts 18°
2026-04-23 02:53 39.89964 4.22974 2953 ft 176 kts 17°
2026-04-23 02:53 39.91225 4.23293 3644 ft 196 kts 10°
2026-04-23 02:53 39.92633 4.23448 4453 ft 209 kts
2026-04-23 02:54 39.94163 4.23615 5065 ft 235 kts
2026-04-23 02:54 39.95892 4.23871 5515 ft 265 kts
2026-04-23 02:54 39.97776 4.24168 6306 ft 274 kts
2026-04-23 02:54 39.99646 4.24458 7532 ft 269 kts
2026-04-23 02:55 40.01531 4.24392 8370 ft 278 kts 344°
2026-04-23 02:55 40.03163 4.23201 9575 ft 267 kts 315°
2026-04-23 02:55 40.04106 4.21123 10386 ft 276 kts 288°
2026-04-23 02:55 40.04311 4.18509 10504 ft 309 kts 269°
2026-04-23 02:56 40.03864 4.15613 10632 ft 338 kts 255°
2026-04-23 02:56 40.02837 4.12829 11497 ft 340 kts 241°
2026-04-23 02:56 40.01370 4.10449 12492 ft 343 kts 230°
2026-04-23 02:56 39.99514 4.08338 12658 ft 368 kts 223°
2026-04-23 02:57 39.97466 4.06331 13510 ft 368 kts 220°
2026-04-23 02:57 39.95362 4.04460 14354 ft 369 kts 217°
2026-04-23 02:57 39.93091 4.02798 14915 ft 378 kts 211°
2026-04-23 02:57 39.90642 4.01447 15541 ft 384 kts 204°
2026-04-23 02:58 39.88051 4.00496 16180 ft 394 kts 196°
2026-04-23 02:58 39.85295 4.00052 16812 ft 401 kts 186°
2026-04-23 02:58 39.82476 4.00249 17462 ft 411 kts 175°
2026-04-23 02:58 39.79693 4.01130 18289 ft 414 kts 164°
2026-04-23 02:59 39.76946 4.02322 19022 ft 413 kts 163°
2026-04-23 02:59 39.74152 4.03332 19552 ft 419 kts 171°
2026-04-23 02:59 39.71297 4.03233 20476 ft 406 kts 194°
2026-04-23 02:59 39.68756 4.01720 21038 ft 392 kts 223°
2026-04-23 03:00 39.66749 3.99290 21598 ft 402 kts 229°
2026-04-23 03:00 39.64973 3.96448 21948 ft 407 kts 242°
2026-04-23 03:00 39.63837 3.93130 22736 ft 402 kts 253°
2026-04-23 03:00 39.62808 3.89721 23334 ft 410 kts 248°
2026-04-23 03:01 39.61224 3.86590 23921 ft 420 kts 235°
2026-04-23 03:01 39.59298 3.83717 24519 ft 423 kts 232°
2026-04-23 03:01 39.57359 3.80828 25057 ft 426 kts 233°
2026-04-23 03:01 39.55483 3.77837 25617 ft 429 kts 235°
2026-04-23 03:02 39.53601 3.74814 26159 ft 433 kts 234°
2026-04-23 03:02 39.51653 3.71811 26706 ft 437 kts 233°
2026-04-23 03:02 39.49674 3.68795 27238 ft 441 kts 233°
2026-04-23 03:02 39.47708 3.65734 27790 ft 444 kts 234°
2026-04-23 03:03 39.45736 3.62637 28325 ft 448 kts 234°
2026-04-23 03:03 39.43728 3.59526 28874 ft 452 kts 233°
2026-04-23 03:03 39.41699 3.56407 29398 ft 456 kts 233°
2026-04-23 03:03 39.39655 3.53240 29927 ft 459 kts 234°
2026-04-23 03:04 39.37843 3.49848 30347 ft 459 kts 243°
2026-04-23 03:04 39.36456 3.46209 30847 ft 457 kts 251°
2026-04-23 03:04 39.35475 3.42315 31431 ft 452 kts 259°
2026-04-23 03:04 39.34937 3.38348 32192 ft 445 kts 266°
2026-04-23 03:05 39.34834 3.34382 32919 ft 439 kts 274°
2026-04-23 03:05 39.35152 3.30487 33625 ft 434 kts 282°
2026-04-23 03:05 39.35746 3.26679 34312 ft 431 kts 283°
2026-04-23 03:05 39.36332 3.22889 34916 ft 429 kts 283°
2026-04-23 03:06 39.36907 3.19110 35504 ft 428 kts 283°
2026-04-23 03:06 39.37490 3.15341 36105 ft 427 kts 283°
2026-04-23 03:06 39.38074 3.11588 36691 ft 426 kts 283°
2026-04-23 03:06 39.38652 3.07838 37279 ft 424 kts 283°
2026-04-23 03:07 39.39222 3.04105 37877 ft 423 kts 283°
2026-04-23 03:07 39.39792 3.00375 38465 ft 422 kts 283°
2026-04-23 03:07 39.40361 2.96662 38989 ft 421 kts 283°
2026-04-23 03:07 39.40927 2.92954 39421 ft 421 kts 283°
2026-04-23 03:08 39.41492 2.89240 39834 ft 421 kts 283°
2026-04-23 03:08 39.42056 2.85518 40265 ft 421 kts 283°
2026-04-23 03:08 39.42620 2.81796 40701 ft 421 kts 283°
2026-04-23 03:08 39.43177 2.78114 41130 ft 422 kts 283°
2026-04-23 03:09 39.43956 2.74467 41505 ft 421 kts 291°
2026-04-23 03:09 39.45069 2.70961 41950 ft 420 kts 294°
2026-04-23 03:09 39.46184 2.67460 42376 ft 420 kts 293°
2026-04-23 03:09 39.47281 2.63952 42795 ft 421 kts 292°
2026-04-23 03:10 39.48384 2.60442 43201 ft 421 kts 293°
2026-04-23 03:10 39.49496 2.56935 43600 ft 421 kts 293°
2026-04-23 03:10 39.50606 2.53419 44002 ft 422 kts 293°
2026-04-23 03:10 39.51713 2.49894 44399 ft 422 kts 292°
2026-04-23 03:11 39.52819 2.46365 44775 ft 422 kts 292°
2026-04-23 03:11 39.53923 2.42842 45073 ft 423 kts 292°
2026-04-23 03:11 39.54808 2.39168 45053 ft 432 kts 283°
2026-04-23 03:12 39.55410 2.31345 45093 ft 447 kts 275°
2026-04-23 03:12 39.55876 2.23180 45091 ft 461 kts 276°
2026-04-23 03:13 39.56338 2.14818 45087 ft 469 kts 275°
2026-04-23 03:13 39.56799 2.06366 45087 ft 470 kts 275°
2026-04-23 03:14 39.57258 1.97907 45084 ft 470 kts 275°
2026-04-23 03:14 39.57707 1.89462 45076 ft 470 kts 275°
2026-04-23 03:15 39.58152 1.81009 45069 ft 470 kts 275°
2026-04-23 03:15 39.58591 1.72542 45062 ft 470 kts 275°
2026-04-23 03:16 39.59024 1.64070 45062 ft 471 kts 275°
2026-04-23 03:16 39.59662 1.51344 45064 ft 472 kts 275°
2026-04-23 03:17 39.60081 1.42853 45060 ft 472 kts 275°
2026-04-23 03:17 39.60131 1.34378 45075 ft 474 kts 267°
2026-04-23 03:18 39.59626 1.25837 45079 ft 475 kts 268°
2026-04-23 03:18 39.59163 1.17295 45081 ft 474 kts 267°
2026-04-23 03:19 39.58665 1.08783 45087 ft 473 kts 267°
2026-04-23 03:19 39.58180 1.00295 45088 ft 471 kts 267°
2026-04-23 03:20 39.57680 0.91823 45095 ft 470 kts 267°
2026-04-23 03:20 39.57184 0.83427 45092 ft 469 kts 267°
2026-04-23 03:21 39.56677 0.75008 45096 ft 468 kts 267°
2026-04-23 03:21 39.56165 0.66590 45090 ft 468 kts 267°
2026-04-23 03:22 39.55648 0.58185 45095 ft 467 kts 267°
2026-04-23 03:22 39.55127 0.49797 45092 ft 467 kts 266°
2026-04-23 03:23 39.54600 0.41416 45085 ft 466 kts 266°
2026-04-23 03:23 39.54158 0.34464 45085 ft 466 kts 266°
2026-04-23 03:24 39.53531 0.24720 45085 ft 466 kts 266°
2026-04-23 03:24 39.53077 0.17746 45083 ft 467 kts 266°
2026-04-23 03:25 39.52526 0.09369 45087 ft 467 kts 266°
2026-04-23 03:25 39.51968 0.00989 45087 ft 467 kts 266°
2026-04-23 03:26 39.51404 -0.07396 45092 ft 467 kts 266°
2026-04-23 03:26 39.50834 -0.15779 45084 ft 466 kts 266°
2026-04-23 03:27 39.50259 -0.24145 45094 ft 466 kts 266°
2026-04-23 03:27 39.49678 -0.32504 45093 ft 465 kts 266°
2026-04-23 03:28 39.49125 -0.40845 45086 ft 464 kts 269°
2026-04-23 03:28 39.49828 -0.49055 45091 ft 463 kts 284°
2026-04-23 03:29 39.52294 -0.56732 45094 ft 463 kts 299°
2026-04-23 03:29 39.55503 -0.63968 45120 ft 464 kts 298°
2026-04-23 03:30 39.58701 -0.71239 45109 ft 464 kts 298°
2026-04-23 03:30 39.61903 -0.78503 45108 ft 463 kts 298°
2026-04-23 03:31 39.65090 -0.85774 45107 ft 463 kts 298°
2026-04-23 03:31 39.68260 -0.93006 45109 ft 464 kts 298°
2026-04-23 03:32 39.71441 -1.00290 45106 ft 464 kts 298°
2026-04-23 03:32 39.74614 -1.07592 45100 ft 464 kts 298°
2026-04-23 03:33 39.77794 -1.14893 45110 ft 464 kts 298°
2026-04-23 03:33 39.80987 -1.22198 45104 ft 464 kts 298°
2026-04-23 03:34 39.84156 -1.29528 45112 ft 464 kts 298°
2026-04-23 03:34 39.87331 -1.36862 45108 ft 465 kts 298°
2026-04-23 03:35 39.90493 -1.44200 45106 ft 465 kts 298°
2026-04-23 03:35 39.93655 -1.51547 45105 ft 465 kts 298°
2026-04-23 03:36 39.96792 -1.58856 45118 ft 465 kts 298°
2026-04-23 03:36 39.99945 -1.66219 45107 ft 465 kts 298°
2026-04-23 03:37 40.03097 -1.73597 45101 ft 465 kts 298°
2026-04-23 03:37 40.06246 -1.80986 45088 ft 467 kts 297°
2026-04-23 03:38 40.09399 -1.88403 45091 ft 467 kts 297°
2026-04-23 03:38 40.12547 -1.95826 45089 ft 467 kts 297°
2026-04-23 03:39 40.15689 -2.03248 45075 ft 467 kts 297°
2026-04-23 03:39 40.18856 -2.10650 45074 ft 466 kts 297°
2026-04-23 03:40 40.21986 -2.18028 45072 ft 466 kts 297°
2026-04-23 03:40 40.25105 -2.25480 45071 ft 467 kts 297°
2026-04-23 03:41 40.28230 -2.32934 45060 ft 467 kts 297°
2026-04-23 03:41 40.31350 -2.40408 45062 ft 467 kts 297°
2026-04-23 03:42 40.34464 -2.47883 45052 ft 467 kts 297°
2026-04-23 03:42 40.37563 -2.55382 45049 ft 467 kts 296°
2026-04-23 03:43 40.40540 -2.62962 45052 ft 467 kts 296°
2026-04-23 03:43 40.43529 -2.70553 45051 ft 468 kts 295°
2026-04-23 03:44 40.46499 -2.78153 45055 ft 468 kts 295°
2026-04-23 03:44 40.49473 -2.85758 45059 ft 468 kts 295°
2026-04-23 03:45 40.52425 -2.93341 45052 ft 469 kts 295°
2026-04-23 03:45 40.55391 -3.00971 45055 ft 469 kts 295°
2026-04-23 03:46 40.58354 -3.08616 45052 ft 469 kts 295°
2026-04-23 03:46 40.61312 -3.16267 45056 ft 470 kts 295°
2026-04-23 03:47 40.64269 -3.23939 45056 ft 470 kts 295°
2026-04-23 03:47 40.67222 -3.31616 45059 ft 470 kts 295°
2026-04-23 03:48 40.70174 -3.39312 45054 ft 471 kts 295°
2026-04-23 03:48 40.73095 -3.46946 45053 ft 468 kts 295°
2026-04-23 03:49 40.76027 -3.54632 45050 ft 469 kts 295°
2026-04-23 03:49 40.78955 -3.62325 45053 ft 469 kts 295°
2026-04-23 03:50 40.81879 -3.70029 45055 ft 469 kts 294°
2026-04-23 03:50 40.84799 -3.77740 45053 ft 469 kts 294°
2026-04-23 03:51 40.87710 -3.85453 45045 ft 469 kts 294°
2026-04-23 03:51 40.90629 -3.93202 45041 ft 472 kts 294°
2026-04-23 03:52 40.93550 -4.00980 45053 ft 473 kts 294°
2026-04-23 03:52 40.96469 -4.08774 45050 ft 472 kts 294°
2026-04-23 03:53 40.99380 -4.16566 45050 ft 473 kts 294°
2026-04-23 03:53 41.02291 -4.24377 45044 ft 473 kts 294°
2026-04-23 03:54 41.05183 -4.32147 45046 ft 473 kts 294°
2026-04-23 03:54 41.08088 -4.39977 45044 ft 473 kts 294°
2026-04-23 03:55 41.10991 -4.47824 45048 ft 474 kts 294°
2026-04-23 03:55 41.13893 -4.55686 45041 ft 474 kts 294°
2026-04-23 03:56 41.16791 -4.63561 45043 ft 475 kts 294°
2026-04-23 03:56 41.19681 -4.71446 45043 ft 475 kts 293°
2026-04-23 03:57 41.22571 -4.79346 45049 ft 476 kts 293°
2026-04-23 03:57 41.25460 -4.87267 45050 ft 476 kts 293°
2026-04-23 03:58 41.28330 -4.95160 45044 ft 477 kts 293°
2026-04-23 03:58 41.31213 -5.03107 45048 ft 477 kts 293°
2026-04-23 03:59 41.34095 -5.11076 45045 ft 478 kts 293°
2026-04-23 03:59 41.36971 -5.19050 45038 ft 478 kts 293°
2026-04-23 04:00 41.39846 -5.27046 45043 ft 479 kts 293°
2026-04-23 04:00 41.42718 -5.35052 45033 ft 479 kts 293°
2026-04-23 04:01 41.45585 -5.43072 45032 ft 479 kts 292°
2026-04-23 04:01 41.48451 -5.51106 45042 ft 480 kts 292°
2026-04-23 04:02 41.51216 -5.59149 45019 ft 479 kts 288°
2026-04-23 04:02 41.52523 -5.67769 45029 ft 474 kts 271°
2026-04-23 04:03 41.52121 -5.76520 45051 ft 472 kts 263°
2026-04-23 04:03 41.51494 -5.85252 45049 ft 473 kts 263°
2026-04-23 04:04 41.50856 -5.93979 45044 ft 473 kts 263°
2026-04-23 04:04 41.50210 -6.02716 45042 ft 473 kts 263°
2026-04-23 04:05 41.49559 -6.11457 45032 ft 473 kts 263°
2026-04-23 04:05 41.48905 -6.20119 45029 ft 473 kts 263°
2026-04-23 04:06 41.48343 -6.28848 45002 ft 474 kts 268°
2026-04-23 04:06 41.48474 -6.33215 44824 ft 464 kts 271°
2026-04-23 04:06 41.48632 -6.37490 43999 ft 456 kts 270°
2026-04-23 04:07 41.48761 -6.41654 43366 ft 445 kts 270°
2026-04-23 04:07 41.48880 -6.45731 42752 ft 434 kts 270°
2026-04-23 04:07 41.49008 -6.49707 42147 ft 425 kts 270°
2026-04-23 04:07 41.49136 -6.53598 41556 ft 417 kts 269°
2026-04-23 04:08 41.49254 -6.57443 40956 ft 413 kts 269°
2026-04-23 04:08 41.49367 -6.61272 40356 ft 413 kts 269°
2026-04-23 04:08 41.49482 -6.65110 39749 ft 415 kts 269°
2026-04-23 04:08 41.49600 -6.68976 39125 ft 418 kts 269°
2026-04-23 04:09 41.49716 -6.72860 38460 ft 420 kts 269°
2026-04-23 04:09 41.49830 -6.76759 37832 ft 420 kts 269°
2026-04-23 04:09 41.49941 -6.80661 37207 ft 424 kts 269°
2026-04-23 04:09 41.50054 -6.84609 36572 ft 428 kts 269°
2026-04-23 04:10 41.50166 -6.88529 35945 ft 430 kts 269°
2026-04-23 04:10 41.50278 -6.92533 35309 ft 433 kts 269°
2026-04-23 04:10 41.50389 -6.96554 34667 ft 435 kts 269°
2026-04-23 04:10 41.50499 -7.00594 34031 ft 437 kts 269°
2026-04-23 04:11 41.50608 -7.04629 33626 ft 437 kts 269°
2026-04-23 04:11 41.50716 -7.08720 32950 ft 442 kts 269°
2026-04-23 04:11 41.50823 -7.12826 32295 ft 443 kts 269°
2026-04-23 04:11 41.50930 -7.16932 31641 ft 444 kts 269°
2026-04-23 04:12 41.51035 -7.21053 30984 ft 445 kts 269°
2026-04-23 04:12 41.51139 -7.25190 30323 ft 447 kts 269°
2026-04-23 04:12 41.51241 -7.29311 29627 ft 440 kts 268°
2026-04-23 04:12 41.51342 -7.33368 29001 ft 436 kts 268°
2026-04-23 04:13 41.51437 -7.37396 28368 ft 432 kts 268°
2026-04-23 04:13 41.51531 -7.41385 27746 ft 429 kts 268°
2026-04-23 04:13 41.51624 -7.45348 27126 ft 426 kts 268°
2026-04-23 04:13 41.51715 -7.49283 26511 ft 423 kts 268°
2026-04-23 04:14 41.51804 -7.53187 25901 ft 419 kts 268°
2026-04-23 04:14 41.51889 -7.57063 25293 ft 416 kts 268°
2026-04-23 04:14 41.51840 -7.59600 24856 ft 411 kts 261°
2026-04-23 04:14 41.51160 -7.63256 24279 ft 403 kts 247°
2026-04-23 04:15 41.49868 -7.66533 23698 ft 397 kts 234°
2026-04-23 04:15 41.48055 -7.69260 23073 ft 391 kts 221°
2026-04-23 04:15 41.43431 -7.72882 21966 ft 385 kts 206°
2026-04-23 04:16 41.41025 -7.74408 21392 ft 381 kts 206°
2026-04-23 04:16 41.38640 -7.75939 20831 ft 378 kts 206°
2026-04-23 04:16 41.36281 -7.77454 20274 ft 375 kts 206°
2026-04-23 04:16 41.33940 -7.78949 19728 ft 372 kts 206°
2026-04-23 04:17 41.31619 -7.80427 19179 ft 369 kts 206°
2026-04-23 04:17 41.29344 -7.81877 18648 ft 365 kts 206°
2026-04-23 04:17 41.27059 -7.83336 18086 ft 363 kts 206°
2026-04-23 04:17 41.24791 -7.84781 17541 ft 359 kts 206°
2026-04-23 04:18 41.22542 -7.86212 17019 ft 358 kts 206°
2026-04-23 04:18 41.20316 -7.87663 16478 ft 355 kts 209°
2026-04-23 04:18 41.18384 -7.89663 15948 ft 352 kts 225°
2026-04-23 04:18 41.16935 -7.92274 15432 ft 352 kts 239°
2026-04-23 04:19 41.15900 -7.95210 14953 ft 352 kts 244°
2026-04-23 04:19 41.14890 -7.98156 14433 ft 349 kts 243°
2026-04-23 04:19 41.13872 -8.01074 13918 ft 347 kts 243°
2026-04-23 04:19 41.12860 -8.03969 13379 ft 345 kts 243°
2026-04-23 04:20 41.11859 -8.06849 12869 ft 343 kts 243°
2026-04-23 04:20 41.10862 -8.09717 12356 ft 342 kts 243°
2026-04-23 04:20 41.09867 -8.12569 11841 ft 340 kts 243°
2026-04-23 04:20 41.08876 -8.15409 11337 ft 335 kts 243°
2026-04-23 04:21 41.07930 -8.18125 10812 ft 315 kts 243°
2026-04-23 04:21 41.07036 -8.20686 10336 ft 298 kts 243°
2026-04-23 04:21 41.06184 -8.23114 9893 ft 284 kts 243°
2026-04-23 04:21 41.05368 -8.25438 9454 ft 274 kts 243°
2026-04-23 04:22 41.04570 -8.27712 9067 ft 271 kts 243°
2026-04-23 04:22 41.03774 -8.29979 8682 ft 271 kts 243°
2026-04-23 04:22 41.02989 -8.32241 8303 ft 270 kts 244°
2026-04-23 04:22 41.02495 -8.34640 7914 ft 271 kts 255°
2026-04-23 04:23 41.02133 -8.37095 7547 ft 272 kts 256°
2026-04-23 04:23 41.01750 -8.39545 7170 ft 270 kts 255°
2026-04-23 04:23 41.01350 -8.41961 6792 ft 268 kts 255°
2026-04-23 04:23 41.00957 -8.44365 6411 ft 266 kts 255°
2026-04-23 04:24 41.00574 -8.46752 6026 ft 264 kts 255°
2026-04-23 04:24 41.00192 -8.49128 5654 ft 264 kts 255°
2026-04-23 04:24 40.99837 -8.51508 5292 ft 263 kts 256°
2026-04-23 04:24 40.99502 -8.53843 4931 ft 253 kts 256°
2026-04-23 04:25 40.99169 -8.56090 4581 ft 244 kts 256°
2026-04-23 04:25 40.99051 -8.58262 4197 ft 234 kts 275°
2026-04-23 04:25 40.99664 -8.60222 3953 ft 230 kts 303°
2026-04-23 04:25 41.00852 -8.61631 3930 ft 237 kts 328°
2026-04-23 04:26 41.02429 -8.62274 3816 ft 239 kts 347°
2026-04-23 04:26 41.04077 -8.62695 3685 ft 242 kts 348°
2026-04-23 04:26 41.05680 -8.63117 3490 ft 225 kts 348°
2026-04-23 04:26 41.07175 -8.63517 3278 ft 216 kts 348°
2026-04-23 04:27 41.08631 -8.63897 3080 ft 215 kts 348°
2026-04-23 04:27 41.10093 -8.64277 2887 ft 214 kts 348°
2026-04-23 04:27 41.11557 -8.64658 2634 ft 215 kts 348°
2026-04-23 04:28 41.14158 -8.65336 2103 ft 175 kts 348°
2026-04-23 04:28 41.15298 -8.65634 1875 ft 154 kts 348°
2026-04-23 04:28 41.16283 -8.65892 1664 ft 135 kts 348°
2026-04-23 04:28 41.17175 -8.66126 1491 ft 128 kts 348°
2026-04-23 04:29 41.18047 -8.66354 1317 ft 129 kts 348°
2026-04-23 04:29 41.18932 -8.66585 1133 ft 132 kts 348°
2026-04-23 04:29 41.19839 -8.66834 924 ft 133 kts 347°
2026-04-23 04:29 41.20736 -8.67089 757 ft 129 kts 349°
2026-04-23 04:30 41.21612 -8.67298 617 ft 127 kts 351°
2026-04-23 04:30 41.22480 -8.67517 472 ft 126 kts 350°
2026-04-23 04:30 41.23337 -8.67745 284 ft 123 kts 351°
2026-04-23 04:30 41.24125 -8.67944 207 ft 101 kts 346°
2026-04-23 04:31 41.24611 -8.68075 202 ft 51 kts 349°
2026-04-23 04:31 41.24872 -8.68139 193 ft 16 kts
2026-04-23 04:31 41.24876 -8.68027 193 ft 14 kts 123°
2026-04-23 04:31 41.24825 -8.67931 199 ft 11 kts 125°
2026-04-23 04:32 41.24788 -8.67863 196 ft 7 kts 131°
2026-04-23 04:32 41.24755 -8.67830 208 ft 5 kts 152°
2026-04-23 04:32 41.24713 -8.67813 209 ft 9 kts 168°
2026-04-23 04:32 41.24622 -8.67791 202 ft 18 kts 170°
2026-04-23 04:33 41.24473 -8.67750 207 ft 23 kts 168°
2026-04-23 04:33 41.24338 -8.67715 210 ft 15 kts 168°
2026-04-23 04:33 41.24266 -8.67638 211 ft 12 kts 124°
2026-04-23 04:33 41.24218 -8.67581 217 ft 7 kts 152°
2026-04-23 04:34 41.24174 -8.67569 216 ft 8 kts 169°
2026-04-23 04:34 41.24104 -8.67549 217 ft 12 kts 168°
2026-04-23 04:34 41.24013 -8.67525 220 ft 14 kts 168°
2026-04-23 04:34 41.23951 -8.67481 224 ft 8 kts 128°
2026-04-23 04:35 41.23928 -8.67440 226 ft 3 kts 125°
2026-04-23 04:35 41.23915 -8.67414 227 ft 5 kts 124°
2026-04-23 04:35 41.23898 -8.67380 230 ft 2 kts 124°
2026-04-23 04:35 41.23896 -8.67376 230 ft 0 kts 124°